Current Version              Previous Version:    01  02  03  04  05  06  07  08  09  10  11  12  13  14  15  16  17  18  19  20  21  22  23  24  25  26  27  28  29  30  
   31  32  33  34  35  36  37  38  39  40  41  42  43  44  45  46  47  48  49  50  51  52  53  54  55  56  57  58  59  60  

[Printable]
917
ASUS44 KFWD 211403
RWRTX
NORTH TEXAS HOURLY WEATHER ROUNDUP
NATIONAL WEATHER SERVICE FORT WORTH TX
800 AM CST FRI NOV 21 2014

NOTE: "FAIR" INDICATES FEW OR NO CLOUDS BELOW 12,000 FEET WITH NO
SIGNIFICANT WEATHER AND/OR OBSTRUCTIONS TO VISIBILITY.

TXZ118-119-211500-
DALLAS/FORT WORTH METROPLEX

CITY           SKY/WX    TMP DP  RH WIND       PRES   REMARKS
DFW AIRPORT    CLOUDY    58  58 100 SE8       30.10R FOG
DALLAS LOVE    CLOUDY    60  58  92 SE10      30.11R FOG
FTW MEACHAM    CLOUDY    61  59  93 SE8       30.09R FOG
DAL-EXECUTIVE  FOG       60  58  92 SE7       30.10R VSB 1/4
FTW-ALLIANCE   CLOUDY    60  59  96 SE7       30.10R FOG
FTW-SPINKS     CLOUDY    61  59  94 SE6       30.12R VSB 1/2
ARLINGTON      FOG       61  58  90 SE7       30.11R VSB 1/2
ADDISON        CLOUDY    59  57  94 SE10      30.11R FOG
MESQUITE       CLOUDY    59  57  94 SE5       30.12R FOG
LANCASTER      CLOUDY    58  56  92 SE3       30.12R FOG
$$

TXZ091>094-102>105-117-120-121-131>134-211500-
NORTH CENTRAL TEXAS

CITY           SKY/WX    TMP DP  RH WIND       PRES   REMARKS
SHRMAN/DENISON CLOUDY    59  59  99 SE9       30.11R FOG
GAINESVILLE    CLOUDY    58  57  95 SE13      30.11R FOG
BOWIE          CLOUDY    58  57  96 S9        30.07S FOG
BRIDGEPORT     CLEAR     58  58 100 SE6       30.10R FOG
DECATUR        CLOUDY    59  58  97 SE10      30.09R FOG
DENTON         CLOUDY    60  58  92 SE10      30.10R FOG
MCKINNEY       CLOUDY    58  57  97 SE9       30.11S FOG
GREENVILLE     CLOUDY    59  55  88 SE7       30.14R
ROCKWALL       CLOUDY    59  58  97 S8        30.11R FOG
TERRELL        CLOUDY    61  58  90 SE6       30.13R FOG
WAXAHACHIE     FOG       59  59 100 SE3       30.12R VSB 1/4
CLEBURNE       FOG       59  59 100 SE7       30.11R VSB<1/4
GRANBURY       CLOUDY    61  59  92 SE8       30.10R FOG
$$

TXZ083>090-098>101-113>116-127>130-139>142-154-155-211500-
WESTERN NORTH TEXAS

CITY           SKY/WX    TMP DP  RH WIND       PRES   REMARKS
WICHITA FALLS  MOCLDY    54  53  97 S8        30.05R
WF-KICKAPOO    CLOUDY    54  54 100 S7        30.07R
VERNON         CLEAR     36  34  93 W3        30.06R
ABILENE        CLOUDY    57  52  83 S9        30.05R
ABILENE-DYESS  MOCLDY    55  51  89 CALM      30.04R
MINERAL WELLS  CLOUDY    59  58  96 SE7       30.07R FOG
STEPHENVILLE   CLOUDY    60  58  93 S7        30.10R VSB 1/2
COMANCHE       CLOUDY    58  58 100 SE6       30.08R FOG
COLEMAN        CLOUDY    55  55 100 CALM      30.08R
BRADY          PTCLDY    55  55 100 SE5       30.07R
$$

TXZ143>147-156>162-174-175-211500-
CENTRAL TEXAS

CITY           SKY/WX    TMP DP  RH WIND       PRES   REMARKS
WACO           FOG       60  60 100 SE8       30.10R VSB 1/4
WACO-TSTC      FOG       63  61  94 SE5       30.11R VSB 1
WACO-MCGREGOR  CLOUDY    61  55  82 SE8       30.11R VSB 1/4
HILLSBORO      FOG       60  58  94 SE8       30.10S VSB 1/2
CORSICANA      LGT RAIN  60  58  92 SE8       30.13R FOG
MEXIA          CLOUDY    60  59  98 SE7       30.11R FOG
HEARNE         CLOUDY    62  61  97 E3        30.13R
CAMERON        CLOUDY    62  61  98 SE3       30.11R FOG
TEMPLE         CLOUDY    61  57  88 SE7       30.09R VSB<1/4
KILLEEN        FOG       61  61 100 SE5       30.09R VSB 1/4
KILLEEN-SKYLRK CLOUDY    61  57  88 SE5       30.09R VSB 1/4
FORT HOOD      FOG       63  62  97 SE5       30.09R VSB 1/2
GATESVILLE     CLOUDY    61  61 100 CALM      30.12R VSB<1/4
LAMPASAS       FOG       60  60  98 CALM      30.09R VSB<1/4
$$

TXZ095>097-106>112-122>126-135>138-148>153-164>167-211500-
EAST TEXAS

CITY           SKY/WX    TMP DP  RH WIND       PRES   REMARKS
PARIS          CLOUDY    54  52  94 E9        30.16R
SULPHUR SPRNGS CLOUDY    58  58  99 SE5       30.16R
MOUNT PLEASANT CLOUDY    57  57  99 SE6       30.18R
MINEOLA        CLOUDY    59  59 100 SE5       30.15R
TYLER          CLOUDY    59  56  89 SE10      30.15R
LONGVIEW       CLOUDY    58  55  90 S14       30.16R
MARSHALL       CLOUDY    53  51  92 S6        30.20R
ATHENS         CLOUDY    57  57 100 SE3       30.13R
PALESTINE      CLOUDY    60  60 100 SE5       30.15R
JACKSONVILLE   CLOUDY    58  58  97 SE9       30.17R FOG
HENDERSON      CLOUDY    57  57 100 SE9       30.17S
NACOGDOCHES    CLOUDY    57  54  88 SE8       30.18R
LUFKIN         CLOUDY    61  57  87 SE10      30.17R
$$

SUPPLEMENTAL OBSERVATIONS (CENTRAL)

CITY           SKY/WX    TMP DP  RH WIND       PRES   REMARKS
$$

SUPPLEMENTAL OBSERVATIONS (WEST)

CITY           SKY/WX    TMP DP  RH WIND       PRES   REMARKS
$$

SUPPLEMENTAL OBSERVATIONS (EAST)

CITY           SKY/WX    TMP DP  RH WIND       PRES   REMARKS
$$

SUPPLEMENTAL OBSERVATIONS ARE A COLLECTION OF AUTOMATED INSTRUMENTS
THAT ARE MAINTAINED BY A VARIETY OF FEDERAL AND STATE AGENCIES.
CERTAIN ELEMENTS...SUCH AS HUMIDITY VALUES AND SUSTAINED WIND
SPEEDS...MAY BE APPROXIMATED.